N67748 CYUL-CYMX

Flight info

Callsign N67748
Flight time 0h 10m
Altitude 5000
Route VFR
Aircraft B407/L-V/N

Departure

Time 2026-05-07 18:41
Airport Montreal / Pierre Elliott Trudeau International Airport (CYUL)

Arrival

Time 2026-05-07 18:51
Airport Montreal Mirabel International Airport (CYMX)
Time Latitude Longitude Altitude Speed Heading
2026-05-07 18:38 45.47900 -73.73285 112 ft 0 kts
2026-05-07 18:40 45.47999 -73.73368 256 ft 40 kts 340°
2026-05-07 18:41 45.48383 -73.73508 727 ft 71 kts 347°
2026-05-07 18:41 45.48919 -73.73834 844 ft 101 kts 325°
2026-05-07 18:41 45.49541 -73.74461 752 ft 118 kts 315°
2026-05-07 18:41 45.50182 -73.75184 908 ft 90 kts 334°
2026-05-07 18:42 45.50589 -73.75415 1280 ft 90 kts 333°
2026-05-07 18:42 45.51105 -73.75789 1495 ft 99 kts 319°
2026-05-07 18:42 45.51716 -73.76494 1335 ft 123 kts 309°
2026-05-07 18:42 45.52244 -73.77411 1279 ft 110 kts 314°
2026-05-07 18:43 45.52851 -73.78002 1240 ft 110 kts 324°
2026-05-07 18:43 45.53483 -73.78525 1458 ft 95 kts 324°
2026-05-07 18:43 45.54087 -73.79138 1460 ft 122 kts 316°
2026-05-07 18:43 45.54784 -73.79920 1266 ft 131 kts 321°
2026-05-07 18:44 45.55529 -73.80655 931 ft 133 kts 311°
2026-05-07 18:44 45.56110 -73.81381 1270 ft 94 kts 315°
2026-05-07 18:44 45.56716 -73.81926 1354 ft 112 kts 323°
2026-05-07 18:44 45.57037 -73.82233 1308 ft 119 kts 319°
2026-05-07 18:45 45.57266 -73.82453 1261 ft 123 kts 317°
2026-05-07 18:45 45.57939 -73.83169 1212 ft 122 kts 310°
2026-05-07 18:45 45.58573 -73.84002 1010 ft 129 kts 310°
2026-05-07 18:46 45.59260 -73.84873 827 ft 127 kts 304°
2026-05-07 18:46 45.59850 -73.85708 825 ft 117 kts 308°
2026-05-07 18:46 45.60404 -73.86372 779 ft 122 kts 311°
2026-05-07 18:46 45.60732 -73.86729 984 ft 104 kts 319°
2026-05-07 18:47 45.61351 -73.87442 894 ft 119 kts 307°
2026-05-07 18:47 45.61871 -73.88393 808 ft 123 kts 302°
2026-05-07 18:47 45.62336 -73.89326 968 ft 111 kts 294°
2026-05-07 18:47 45.62719 -73.90213 1195 ft 101 kts 305°
2026-05-07 18:48 45.63348 -73.90833 1160 ft 118 kts 327°
2026-05-07 18:48 45.64003 -73.91399 1428 ft 106 kts 315°
2026-05-07 18:48 45.64504 -73.92276 1351 ft 121 kts 295°
2026-05-07 18:48 45.64956 -73.93364 1097 ft 130 kts 296°
2026-05-07 18:49 45.65492 -73.94399 945 ft 126 kts 297°
2026-05-07 18:49 45.65918 -73.95466 909 ft 119 kts 284°
2026-05-07 18:49 45.66229 -73.96542 1003 ft 113 kts 289°
2026-05-07 18:49 45.66584 -73.97596 978 ft 117 kts 288°
2026-05-07 18:50 45.66916 -73.98652 789 ft 118 kts 285°
2026-05-07 18:50 45.67242 -73.99709 575 ft 93 kts 284°
2026-05-07 18:50 45.67474 -74.00527 483 ft 89 kts 282°
2026-05-07 18:50 45.67588 -74.01381 432 ft 69 kts 290°
2026-05-07 18:51 45.67702 -74.01934 465 ft 53 kts 291°
2026-05-07 18:51 45.67827 -74.02375 424 ft 41 kts 272°
2026-05-07 18:51 45.67755 -74.02718 348 ft 32 kts 133°
2026-05-07 18:51 45.67687 -74.02720 298 ft 29 kts 342°
2026-05-07 18:52 45.67784 -74.02722 269 ft 0 kts 199°
2026-05-07 18:54 45.67755 -74.02767 507 ft 20 kts 210°
2026-05-07 18:54 45.67623 -74.02968 1102 ft 55 kts 192°
2026-05-07 18:54 45.67074 -74.03008 1197 ft 94 kts 175°
2026-05-07 18:55 45.66384 -74.02849 891 ft 102 kts 107°
2026-05-07 18:55 45.66300 -74.02648 1001 ft 62 kts
2026-05-07 18:55 45.66757 -74.02857 688 ft 53 kts 328°
2026-05-07 18:55 45.67051 -74.03102 531 ft 57 kts 40°
2026-05-07 18:56 45.67229 -74.02877 324 ft 46 kts 130°
2026-05-07 18:56 45.67216 -74.02735 269 ft 0 kts 143°